Time,TemperatureF,DewpointF,PressureIn,WindDirection,WindDirectionDegrees,WindSpeedMPH,WindSpeedGustMPH,Humidity,HourlyPrecipIn,Conditions,Clouds,dailyrainin,SoftwareType,DateUTC
2013-03-04 00:00:00,22.5,18.7,29.94,WSW,250,1.0,1.0,85,0.00,,,0.00,Wunderground v.1.15,2013-03-04 05:00:00,
2013-03-04 00:01:00,22.5,18.7,29.94,SW,235,1.0,10.0,85,0.00,,,0.00,Wunderground v.1.15,2013-03-04 05:01:00,
2013-03-04 00:02:00,22.5,18.7,29.94,North,8,1.0,10.0,85,0.00,,,0.00,Wunderground v.1.15,2013-03-04 05:02:00,
2013-03-04 00:07:00,22.5,18.7,29.94,West,270,1.0,10.0,85,0.00,,,0.00,Wunderground v.1.15,2013-03-04 05:07:00,
2013-03-04 00:08:00,22.5,18.7,29.94,SSW,212,1.0,10.0,85,0.00,,,0.00,Wunderground v.1.15,2013-03-04 05:08:00,
2013-03-04 00:13:00,22.5,18.7,29.94,SW,229,1.0,2.0,85,0.00,,,0.00,Wunderground v.1.15,2013-03-04 05:13:00,
2013-03-04 00:19:00,22.4,18.3,29.94,WSW,241,1.0,2.0,84,0.00,,,0.00,Wunderground v.1.15,2013-03-04 05:19:00,
2013-03-04 00:25:00,22.4,18.3,29.94,West,281,1.0,2.0,84,0.00,,,0.00,Wunderground v.1.15,2013-03-04 05:25:00,
2013-03-04 00:30:00,22.4,18.3,29.94,North,11,2.0,2.0,84,0.00,,,0.00,Wunderground v.1.15,2013-03-04 05:30:00,
2013-03-04 00:35:00,22.4,18.3,29.94,ENE,61,2.0,2.0,84,0.00,,,0.00,Wunderground v.1.15,2013-03-04 05:35:00,
2013-03-04 00:41:00,22.4,18.3,29.95,SW,214,2.0,2.0,84,0.00,,,0.00,Wunderground v.1.15,2013-03-04 05:41:00,
2013-03-04 00:47:00,22.4,18.3,29.95,ENE,76,1.0,2.0,84,0.00,,,0.00,Wunderground v.1.15,2013-03-04 05:47:00,
2013-03-04 00:52:00,22.4,18.3,29.94,WNW,283,1.0,3.0,84,0.00,,,0.00,Wunderground v.1.15,2013-03-04 05:52:00,
2013-03-04 00:57:00,22.4,18.3,29.94,NNW,335,1.0,3.0,84,0.00,,,0.00,Wunderground v.1.15,2013-03-04 05:57:00,
2013-03-04 01:03:00,22.4,18.3,29.94,NE,38,1.0,9.0,84,0.00,,,0.00,Wunderground v.1.15,2013-03-04 06:03:00,
2013-03-04 01:09:00,22.4,18.3,29.95,ENE,63,2.0,9.0,84,0.00,,,0.00,Wunderground v.1.15,2013-03-04 06:09:00,
2013-03-04 01:14:00,22.4,18.3,29.95,North,8,2.0,4.0,84,0.00,,,0.00,Wunderground v.1.15,2013-03-04 06:14:00,
2013-03-04 01:19:00,22.4,18.3,29.95,North,354,2.0,4.0,84,0.00,,,0.00,Wunderground v.1.15,2013-03-04 06:19:00,
2013-03-04 01:24:00,22.4,18.3,29.95,NE,34,3.0,7.0,84,0.00,,,0.00,Wunderground v.1.15,2013-03-04 06:24:00,
2013-03-04 01:29:00,22.4,18.3,29.95,SW,226,2.0,7.0,84,0.00,,,0.00,Wunderground v.1.15,2013-03-04 06:29:00,
2013-03-04 01:35:00,22.4,18.3,29.95,ESE,107,1.0,2.0,84,0.00,,,0.00,Wunderground v.1.15,2013-03-04 06:35:00,
2013-03-04 01:40:00,22.3,18.5,29.94,WNW,283,2.0,2.0,85,0.00,,,0.00,Wunderground v.1.15,2013-03-04 06:40:00,
2013-03-04 01:45:00,22.4,18.6,29.94,NNE,24,1.0,2.0,85,0.00,,,0.00,Wunderground v.1.15,2013-03-04 06:45:00,
2013-03-04 01:51:00,22.4,18.6,29.94,North,4,1.0,3.0,85,0.00,,,0.00,Wunderground v.1.15,2013-03-04 06:51:00,
2013-03-04 01:56:00,22.3,18.2,29.94,NNE,15,2.0,3.0,84,0.00,,,0.00,Wunderground v.1.15,2013-03-04 06:56:00,
2013-03-04 02:01:00,22.3,18.2,29.94,NNE,15,2.0,8.0,84,0.00,,,0.00,Wunderground v.1.15,2013-03-04 07:01:00,
2013-03-04 02:07:00,22.3,18.2,29.94,WNW,297,2.0,8.0,84,0.00,,,0.00,Wunderground v.1.15,2013-03-04 07:07:00,
2013-03-04 02:12:00,22.3,18.5,29.94,North,352,1.0,1.0,85,0.00,,,0.00,Wunderground v.1.15,2013-03-04 07:12:00,
2013-03-04 02:18:00,22.3,18.5,29.94,NE,39,1.0,3.0,85,0.00,,,0.00,Wunderground v.1.15,2013-03-04 07:18:00,
2013-03-04 02:23:00,22.3,18.5,29.94,North,352,1.0,2.0,85,0.00,,,0.00,Wunderground v.1.15,2013-03-04 07:23:00,
2013-03-04 02:29:00,22.3,18.5,29.95,North,352,1.0,4.0,85,0.00,,,0.00,Wunderground v.1.15,2013-03-04 07:29:00,
2013-03-04 02:34:00,22.4,18.6,29.95,NNE,13,1.0,2.0,85,0.00,,,0.00,Wunderground v.1.15,2013-03-04 07:34:00,
2013-03-04 02:39:00,22.4,18.6,29.95,NNE,18,2.0,4.0,85,0.00,,,0.00,Wunderground v.1.15,2013-03-04 07:39:00,
2013-03-04 02:45:00,22.4,18.6,29.95,NNE,33,2.0,8.0,85,0.00,,,0.00,Wunderground v.1.15,2013-03-04 07:45:00,
2013-03-04 02:50:00,22.4,18.6,29.95,WSW,246,2.0,3.0,85,0.00,,,0.00,Wunderground v.1.15,2013-03-04 07:50:00,
2013-03-04 02:55:00,22.4,18.6,29.95,NE,46,1.0,3.0,85,0.00,,,0.00,Wunderground v.1.15,2013-03-04 07:55:00,
2013-03-04 03:01:00,22.3,18.5,29.94,ENE,60,1.0,3.0,85,0.00,,,0.00,Wunderground v.1.15,2013-03-04 08:01:00,
2013-03-04 03:06:00,22.3,18.5,29.95,WNW,297,1.0,10.0,85,0.00,,,0.00,Wunderground v.1.15,2013-03-04 08:06:00,
2013-03-04 03:11:00,22.3,18.5,29.95,West,281,2.0,4.0,85,0.00,,,0.00,Wunderground v.1.15,2013-03-04 08:11:00,
2013-03-04 03:17:00,22.2,18.4,29.95,ENE,78,3.0,8.0,85,0.00,,,0.00,Wunderground v.1.15,2013-03-04 08:17:00,
2013-03-04 03:23:00,22.2,18.4,29.95,ESE,105,2.0,2.0,85,0.00,,,0.00,Wunderground v.1.15,2013-03-04 08:23:00,
2013-03-04 03:29:00,22.2,18.4,29.95,NE,51,1.0,3.0,85,0.00,,,0.00,Wunderground v.1.15,2013-03-04 08:29:00,
2013-03-04 03:34:00,22.1,18.3,29.95,West,262,1.0,2.0,85,0.00,,,0.00,Wunderground v.1.15,2013-03-04 08:34:00,
2013-03-04 03:40:00,22.1,18.3,29.95,West,264,1.0,1.0,85,0.00,,,0.00,Wunderground v.1.15,2013-03-04 08:40:00,
2013-03-04 03:46:00,22.1,18.6,29.95,West,273,1.0,1.0,86,0.00,,,0.00,Wunderground v.1.15,2013-03-04 08:46:00,
2013-03-04 03:51:00,22.0,18.5,29.94,WNW,293,1.0,1.0,86,0.00,,,0.00,Wunderground v.1.15,2013-03-04 08:51:00,
2013-03-04 03:56:00,21.9,18.4,29.95,West,260,1.0,3.0,86,0.00,,,0.00,Wunderground v.1.15,2013-03-04 08:56:00,
2013-03-04 04:01:00,21.9,18.4,29.95,North,1,1.0,10.0,86,0.00,,,0.00,Wunderground v.1.15,2013-03-04 09:01:00,
2013-03-04 04:07:00,21.8,18.3,29.95,NNW,336,1.0,10.0,86,0.00,,,0.00,Wunderground v.1.15,2013-03-04 09:07:00,
2013-03-04 04:12:00,21.8,18.3,29.95,North,1,0.0,1.0,86,0.00,,,0.00,Wunderground v.1.15,2013-03-04 09:12:00,
2013-03-04 04:17:00,21.8,18.3,29.95,SE,135,1.0,4.0,86,0.00,,,0.00,Wunderground v.1.15,2013-03-04 09:17:00,
2013-03-04 04:22:00,21.8,18.0,29.95,WNW,291,1.0,2.0,85,0.00,,,0.00,Wunderground v.1.15,2013-03-04 09:22:00,
2013-03-04 04:27:00,21.8,18.0,29.95,ENE,70,1.0,3.0,85,0.00,,,0.00,Wunderground v.1.15,2013-03-04 09:27:00,
2013-03-04 04:33:00,21.8,18.0,29.95,NNE,25,2.0,4.0,85,0.00,,,0.00,Wunderground v.1.15,2013-03-04 09:33:00,
2013-03-04 04:39:00,21.8,18.0,29.95,NNW,330,2.0,4.0,85,0.00,,,0.00,Wunderground v.1.15,2013-03-04 09:39:00,
2013-03-04 04:44:00,21.8,18.0,29.96,SW,232,2.0,5.0,85,0.00,,,0.00,Wunderground v.1.15,2013-03-04 09:44:00,
2013-03-04 04:49:00,21.7,17.9,29.96,West,270,2.0,5.0,85,0.00,,,0.00,Wunderground v.1.15,2013-03-04 09:49:00,
2013-03-04 04:55:00,21.7,17.9,29.96,ESE,123,1.0,2.0,85,0.00,,,0.00,Wunderground v.1.15,2013-03-04 09:55:00,
2013-03-04 05:00:00,21.7,17.9,29.96,SW,220,2.0,2.0,85,0.00,,,0.00,Wunderground v.1.15,2013-03-04 10:00:00,
2013-03-04 05:05:00,21.6,17.8,29.95,WSW,248,2.0,11.0,85,0.00,,,0.00,Wunderground v.1.15,2013-03-04 10:05:00,
2013-03-04 05:10:00,21.6,18.1,29.95,ESE,108,1.0,1.0,86,0.00,,,0.00,Wunderground v.1.15,2013-03-04 10:10:00,
2013-03-04 05:16:00,21.5,17.7,29.95,West,274,1.0,5.0,85,0.00,,,0.00,Wunderground v.1.15,2013-03-04 10:16:00,
2013-03-04 05:22:00,21.5,17.7,29.95,East,96,1.0,1.0,85,0.00,,,0.00,Wunderground v.1.15,2013-03-04 10:22:00,
2013-03-04 05:27:00,21.5,17.7,29.95,NE,41,1.0,4.0,85,0.00,,,0.00,Wunderground v.1.15,2013-03-04 10:27:00,
2013-03-04 05:32:00,21.5,17.7,29.96,NW,305,2.0,2.0,85,0.00,,,0.00,Wunderground v.1.15,2013-03-04 10:32:00,
2013-03-04 05:37:00,21.5,17.7,29.96,NNE,15,3.0,7.0,85,0.00,,,0.00,Wunderground v.1.15,2013-03-04 10:37:00,
2013-03-04 05:42:00,21.5,17.7,29.96,West,267,3.0,3.0,85,0.00,,,0.00,Wunderground v.1.15,2013-03-04 10:42:00,
2013-03-04 05:48:00,21.5,17.7,29.96,SW,231,2.0,6.0,85,0.00,,,0.00,Wunderground v.1.15,2013-03-04 10:48:00,
2013-03-04 05:53:00,21.5,17.7,29.96,SSE,147,3.0,4.0,85,0.00,,,0.00,Wunderground v.1.15,2013-03-04 10:53:00,
2013-03-04 05:59:00,21.6,17.8,29.96,NE,44,2.0,5.0,85,0.00,,,0.00,Wunderground v.1.15,2013-03-04 10:59:00,
2013-03-04 06:05:00,21.6,17.8,29.96,NNE,18,2.0,7.0,85,0.00,,,0.00,Wunderground v.1.15,2013-03-04 11:05:00,
2013-03-04 06:10:00,21.6,17.8,29.95,NE,43,1.0,8.0,85,0.00,,,0.00,Wunderground v.1.15,2013-03-04 11:10:00,
2013-03-04 06:16:00,21.6,17.8,29.95,North,8,2.0,8.0,85,0.00,,,0.00,Wunderground v.1.15,2013-03-04 11:16:00,
2013-03-04 06:21:00,21.6,17.8,29.95,West,273,2.0,5.0,85,0.00,,,0.00,Wunderground v.1.15,2013-03-04 11:21:00,
2013-03-04 06:26:00,21.6,17.8,29.95,NW,311,2.0,5.0,85,0.00,,,0.00,Wunderground v.1.15,2013-03-04 11:26:00,
2013-03-04 06:32:00,21.6,17.5,29.95,NE,48,3.0,5.0,84,0.00,,,0.00,Wunderground v.1.15,2013-03-04 11:32:00,
2013-03-04 06:37:00,21.6,17.8,29.95,ENE,63,3.0,5.0,85,0.00,,,0.00,Wunderground v.1.15,2013-03-04 11:37:00,
2013-03-04 06:43:00,21.6,17.5,29.95,NNE,26,2.0,3.0,84,0.00,,,0.00,Wunderground v.1.15,2013-03-04 11:43:00,
2013-03-04 06:49:00,21.6,17.5,29.95,NNE,25,2.0,4.0,84,0.00,,,0.00,Wunderground v.1.15,2013-03-04 11:49:00,
2013-03-04 06:54:00,21.7,17.6,29.96,NE,34,2.0,5.0,84,0.00,,,0.00,Wunderground v.1.15,2013-03-04 11:54:00,
2013-03-04 06:59:00,21.7,17.6,29.95,NW,309,2.0,5.0,84,0.00,,,0.00,Wunderground v.1.15,2013-03-04 11:59:00,
2013-03-04 07:05:00,21.8,17.7,29.96,NE,43,3.0,9.0,84,0.00,,,0.00,Wunderground v.1.15,2013-03-04 12:05:00,
2013-03-04 07:10:00,21.9,17.8,29.96,NNE,28,2.0,7.0,84,0.00,,,0.00,Wunderground v.1.15,2013-03-04 12:10:00,
2013-03-04 07:15:00,21.9,17.8,29.97,North,6,2.0,7.0,84,0.00,,,0.00,Wunderground v.1.15,2013-03-04 12:15:00,
2013-03-04 07:20:00,21.9,17.8,29.96,NE,37,3.0,3.0,84,0.00,,,0.00,Wunderground v.1.15,2013-03-04 12:20:00,
2013-03-04 07:25:00,21.9,17.5,29.96,SW,224,3.0,5.0,83,0.00,,,0.00,Wunderground v.1.15,2013-03-04 12:25:00,
2013-03-04 07:31:00,22.0,17.9,29.97,NE,46,2.0,4.0,84,0.00,,,0.00,Wunderground v.1.15,2013-03-04 12:31:00,
2013-03-04 07:36:00,22.0,17.9,29.96,SW,228,1.0,4.0,84,0.00,,,0.00,Wunderground v.1.15,2013-03-04 12:36:00,
2013-03-04 07:42:00,22.1,18.0,29.96,NE,47,1.0,1.0,84,0.00,,,0.00,Wunderground v.1.15,2013-03-04 12:42:00,
2013-03-04 07:47:00,22.1,17.7,29.96,East,81,2.0,5.0,83,0.00,,,0.00,Wunderground v.1.15,2013-03-04 12:47:00,
2013-03-04 07:52:00,22.1,17.7,29.96,ENE,68,2.0,4.0,83,0.00,,,0.00,Wunderground v.1.15,2013-03-04 12:52:00,
2013-03-04 07:58:00,22.1,17.7,29.96,ENE,76,3.0,4.0,83,0.00,,,0.00,Wunderground v.1.15,2013-03-04 12:58:00,
2013-03-04 08:03:00,22.2,17.8,29.96,NE,49,2.0,9.0,83,0.00,,,0.00,Wunderground v.1.15,2013-03-04 13:03:00,
2013-03-04 08:09:00,22.3,18.2,29.96,NE,50,2.0,9.0,84,0.00,,,0.00,Wunderground v.1.15,2013-03-04 13:09:00,
2013-03-04 08:14:00,22.3,18.2,29.96,WSW,249,2.0,3.0,84,0.00,,,0.00,Wunderground v.1.15,2013-03-04 13:14:00,
2013-03-04 08:19:00,22.4,18.0,29.96,East,91,2.0,6.0,83,0.00,,,0.00,Wunderground v.1.15,2013-03-04 13:19:00,
2013-03-04 08:25:00,22.4,18.3,29.96,NNE,29,2.0,5.0,84,0.00,,,0.00,Wunderground v.1.15,2013-03-04 13:25:00,
2013-03-04 08:30:00,22.5,18.1,29.96,North,352,2.0,2.0,83,0.00,,,0.00,Wunderground v.1.15,2013-03-04 13:30:00,
2013-03-04 08:36:00,22.5,18.1,29.96,WNW,285,3.0,6.0,83,0.00,,,0.00,Wunderground v.1.15,2013-03-04 13:36:00,
2013-03-04 08:41:00,22.7,18.0,29.96,NE,53,2.0,3.0,82,0.00,,,0.00,Wunderground v.1.15,2013-03-04 13:41:00,
2013-03-04 08:46:00,22.7,18.0,29.96,North,352,2.0,8.0,82,0.00,,,0.00,Wunderground v.1.15,2013-03-04 13:46:00,
2013-03-04 08:51:00,22.8,18.4,29.96,NE,41,2.0,2.0,83,0.00,,,0.00,Wunderground v.1.15,2013-03-04 13:51:00,
2013-03-04 08:57:00,22.7,18.0,29.96,WNW,291,2.0,8.0,82,0.00,,,0.00,Wunderground v.1.15,2013-03-04 13:57:00,
2013-03-04 09:02:00,22.7,17.7,29.96,NE,34,3.0,10.0,81,0.00,,,0.00,Wunderground v.1.15,2013-03-04 14:02:00,
2013-03-04 09:07:00,22.7,17.7,29.95,NE,50,3.0,10.0,81,0.00,,,0.00,Wunderground v.1.15,2013-03-04 14:07:00,
2013-03-04 09:12:00,23.0,17.7,29.96,North,6,2.0,6.0,80,0.00,,,0.00,Wunderground v.1.15,2013-03-04 14:12:00,
2013-03-04 09:17:00,23.1,17.6,29.96,NW,325,2.0,6.0,79,0.00,,,0.00,Wunderground v.1.15,2013-03-04 14:17:00,
2013-03-04 09:23:00,23.4,17.8,29.96,NE,38,2.0,7.0,79,0.00,,,0.00,Wunderground v.1.15,2013-03-04 14:23:00,
2013-03-04 09:29:00,23.7,17.8,29.96,West,274,2.0,7.0,78,0.00,,,0.00,Wunderground v.1.15,2013-03-04 14:29:00,
2013-03-04 09:34:00,24.2,18.3,29.96,WNW,301,2.0,3.0,78,0.00,,,0.00,Wunderground v.1.15,2013-03-04 14:34:00,
2013-03-04 09:39:00,24.4,17.9,29.96,ENE,74,3.0,13.0,76,0.00,,,0.00,Wunderground v.1.15,2013-03-04 14:39:00,
2013-03-04 09:44:00,24.8,18.3,29.95,West,260,2.0,5.0,76,0.00,,,0.00,Wunderground v.1.15,2013-03-04 14:44:00,
2013-03-04 09:49:00,24.8,18.0,29.96,NE,40,2.0,9.0,75,0.00,,,0.00,Wunderground v.1.15,2013-03-04 14:49:00,
2013-03-04 09:55:00,24.6,17.8,29.96,North,349,3.0,9.0,75,0.00,,,0.00,Wunderground v.1.15,2013-03-04 14:55:00,
2013-03-04 10:00:00,24.7,17.9,29.96,NW,308,3.0,3.0,75,0.00,,,0.00,Wunderground v.1.15,2013-03-04 15:00:00,
2013-03-04 10:05:00,24.8,17.7,29.96,NNE,33,3.0,11.0,74,0.00,,,0.00,Wunderground v.1.15,2013-03-04 15:05:00,
2013-03-04 10:10:00,24.8,18.0,29.96,NNE,28,3.0,4.0,75,0.00,,,0.00,Wunderground v.1.15,2013-03-04 15:10:00,
2013-03-04 10:16:00,24.9,18.1,29.96,NNE,27,4.0,11.0,75,0.00,,,0.00,Wunderground v.1.15,2013-03-04 15:16:00,
2013-03-04 10:21:00,25.2,18.1,29.96,NNE,19,4.0,5.0,74,0.00,,,0.00,Wunderground v.1.15,2013-03-04 15:21:00,
2013-03-04 10:26:00,25.3,18.2,29.96,North,360,4.0,7.0,74,0.00,,,0.00,Wunderground v.1.15,2013-03-04 15:26:00,
2013-03-04 10:31:00,25.5,18.4,29.95,NNE,15,4.0,5.0,74,0.00,,,0.00,Wunderground v.1.15,2013-03-04 15:31:00,
2013-03-04 10:36:00,25.8,18.3,29.95,NNW,330,4.0,7.0,73,0.00,,,0.00,Wunderground v.1.15,2013-03-04 15:36:00,
2013-03-04 10:42:00,26.6,19.4,29.95,West,270,4.0,4.0,74,0.00,,,0.00,Wunderground v.1.15,2013-03-04 15:42:00,
2013-03-04 10:48:00,27.1,18.6,29.95,WNW,293,3.0,5.0,70,0.00,,,0.00,Wunderground v.1.15,2013-03-04 15:48:00,
2013-03-04 10:53:00,27.0,18.8,29.95,North,6,3.0,4.0,71,0.00,,,0.00,Wunderground v.1.15,2013-03-04 15:53:00,
2013-03-04 10:59:00,27.0,19.2,29.95,North,1,4.0,8.0,72,0.00,,,0.00,Wunderground v.1.15,2013-03-04 15:59:00,
2013-03-04 11:04:00,27.3,19.1,29.95,West,278,3.0,13.0,71,0.00,,,0.00,Wunderground v.1.15,2013-03-04 16:04:00,
2013-03-04 11:09:00,27.6,18.8,29.95,SSW,201,3.0,13.0,69,0.00,,,0.00,Wunderground v.1.15,2013-03-04 16:09:00,
2013-03-04 11:15:00,27.1,18.3,29.95,NW,318,4.0,7.0,69,0.00,,,0.00,Wunderground v.1.15,2013-03-04 16:15:00,
2013-03-04 11:20:00,27.1,18.6,29.95,West,271,4.0,8.0,70,0.00,,,0.00,Wunderground v.1.15,2013-03-04 16:20:00,
2013-03-04 11:25:00,27.2,18.7,29.95,SW,233,3.0,8.0,70,0.00,,,0.00,Wunderground v.1.15,2013-03-04 16:25:00,
2013-03-04 11:30:00,27.1,18.3,29.95,NE,46,4.0,4.0,69,0.00,,,0.00,Wunderground v.1.15,2013-03-04 16:30:00,
2013-03-04 11:35:00,27.2,18.7,29.95,SE,134,3.0,4.0,70,0.00,,,0.00,Wunderground v.1.15,2013-03-04 16:35:00,
2013-03-04 11:40:00,27.2,18.7,29.95,ESE,113,3.0,3.0,70,0.00,,,0.00,Wunderground v.1.15,2013-03-04 16:40:00,
2013-03-04 11:46:00,27.1,18.3,29.95,WSW,242,3.0,7.0,69,0.00,,,0.00,Wunderground v.1.15,2013-03-04 16:46:00,
2013-03-04 11:51:00,27.1,18.3,29.95,NW,304,3.0,4.0,69,0.00,,,0.00,Wunderground v.1.15,2013-03-04 16:51:00,
2013-03-04 11:56:00,27.2,19.0,29.95,SW,219,2.0,4.0,71,0.00,,,0.00,Wunderground v.1.15,2013-03-04 16:56:00,
2013-03-04 12:01:00,27.5,19.3,29.96,NNE,24,2.0,6.0,71,0.00,,,0.00,Wunderground v.1.15,2013-03-04 17:01:00,
2013-03-04 12:07:00,27.4,19.6,29.95,NE,35,2.0,14.0,72,0.00,,,0.00,Wunderground v.1.15,2013-03-04 17:07:00,
2013-03-04 12:12:00,27.0,18.8,29.95,NNE,16,3.0,7.0,71,0.00,,,0.00,Wunderground v.1.15,2013-03-04 17:12:00,
2013-03-04 12:17:00,27.1,19.3,29.95,WSW,248,3.0,7.0,72,0.00,,,0.00,Wunderground v.1.15,2013-03-04 17:17:00,
2013-03-04 12:23:00,27.0,19.2,29.95,SSW,207,2.0,5.0,72,0.00,,,0.00,Wunderground v.1.15,2013-03-04 17:23:00,
2013-03-04 12:29:00,27.2,19.0,29.95,NE,46,3.0,8.0,71,0.00,,,0.00,Wunderground v.1.15,2013-03-04 17:29:00,
2013-03-04 12:34:00,27.5,19.3,29.95,NW,311,2.0,5.0,71,0.00,,,0.00,Wunderground v.1.15,2013-03-04 17:34:00,
2013-03-04 12:39:00,27.4,19.2,29.95,West,276,3.0,8.0,71,0.00,,,0.00,Wunderground v.1.15,2013-03-04 17:39:00,
2013-03-04 12:44:00,27.2,19.0,29.96,West,281,3.0,4.0,71,0.00,,,0.00,Wunderground v.1.15,2013-03-04 17:44:00,
2013-03-04 12:49:00,27.7,19.5,29.96,North,349,2.0,5.0,71,0.00,,,0.00,Wunderground v.1.15,2013-03-04 17:49:00,
2013-03-04 12:55:00,27.5,19.3,29.96,NW,322,2.0,6.0,71,0.00,,,0.00,Wunderground v.1.15,2013-03-04 17:55:00,
2013-03-04 13:00:00,27.2,19.4,29.96,NW,305,3.0,3.0,72,0.00,,,0.00,Wunderground v.1.15,2013-03-04 18:00:00,
2013-03-04 13:05:00,27.3,19.5,29.96,WNW,289,3.0,12.0,72,0.00,,,0.00,Wunderground v.1.15,2013-03-04 18:05:00,
2013-03-04 13:10:00,27.2,19.4,29.95,NW,312,3.0,3.0,72,0.00,,,0.00,Wunderground v.1.15,2013-03-04 18:10:00,
2013-03-04 13:15:00,27.2,18.4,29.95,NW,314,3.0,4.0,69,0.00,,,0.00,Wunderground v.1.15,2013-03-04 18:15:00,
2013-03-04 13:20:00,27.1,18.3,29.96,North,352,3.0,3.0,69,0.00,,,0.00,Wunderground v.1.15,2013-03-04 18:20:00,
2013-03-04 13:26:00,26.9,18.4,29.96,NW,307,3.0,7.0,70,0.00,,,0.00,Wunderground v.1.15,2013-03-04 18:26:00,
2013-03-04 13:30:00,26.9,18.7,29.96,NE,34,2.0,2.0,71,0.00,,,0.00,Wunderground v.1.15,2013-03-04 18:30:00,
2013-03-04 13:31:00,26.9,18.7,29.95,SSW,210,2.0,2.0,71,0.00,,,0.00,Wunderground v.1.15,2013-03-04 18:31:00,
2013-03-04 13:32:00,26.9,18.7,29.95,WNW,293,3.0,3.0,71,0.00,,,0.00,Wunderground v.1.15,2013-03-04 18:32:00,
2013-03-04 13:37:00,26.7,18.9,29.96,NNW,333,2.0,4.0,72,0.00,,,0.00,Wunderground v.1.15,2013-03-04 18:37:00,
2013-03-04 13:40:00,26.7,18.9,29.95,NNW,345,2.0,2.0,72,0.00,,,0.00,Wunderground v.1.15,2013-03-04 18:40:00,
2013-03-04 13:46:00,26.5,18.7,29.96,NNE,25,2.0,6.0,72,0.00,,,0.00,Wunderground v.1.15,2013-03-04 18:46:00,
2013-03-04 13:51:00,26.4,18.6,29.96,WNW,283,2.0,2.0,72,0.00,,,0.00,Wunderground v.1.15,2013-03-04 18:51:00,
2013-03-04 13:56:00,26.0,18.2,29.96,NNW,329,1.0,3.0,72,0.00,,,0.00,Wunderground v.1.15,2013-03-04 18:56:00,
2013-03-04 14:01:00,25.5,18.0,29.96,West,270,2.0,4.0,73,0.00,,,0.00,Wunderground v.1.15,2013-03-04 19:01:00,
2013-03-04 14:07:00,25.3,18.2,29.97,NNW,344,2.0,14.0,74,0.00,,,0.00,Wunderground v.1.15,2013-03-04 19:07:00,
2013-03-04 14:13:00,25.3,18.5,29.97,NNW,329,2.0,2.0,75,0.00,,,0.00,Wunderground v.1.15,2013-03-04 19:13:00,
2013-03-04 14:19:00,25.3,17.9,29.98,North,4,1.0,4.0,73,0.00,,,0.00,Wunderground v.1.15,2013-03-04 19:19:00,
2013-03-04 14:25:00,25.2,17.8,29.98,NNE,18,2.0,5.0,73,0.00,,,0.00,Wunderground v.1.15,2013-03-04 19:25:00,
2013-03-04 14:31:00,25.4,18.3,29.98,NW,323,2.0,6.0,74,0.00,,,0.00,Wunderground v.1.15,2013-03-04 19:31:00,
2013-03-04 14:36:00,25.5,18.7,29.98,WNW,298,2.0,6.0,75,0.00,,,0.00,Wunderground v.1.15,2013-03-04 19:36:00,
2013-03-04 14:41:00,25.8,18.3,29.98,North,5,1.0,1.0,73,0.00,,,0.00,Wunderground v.1.15,2013-03-04 19:41:00,
2013-03-04 14:46:00,25.9,17.8,29.98,NNW,340,1.0,6.0,71,0.00,,,0.00,Wunderground v.1.15,2013-03-04 19:46:00,
2013-03-04 14:51:00,25.6,17.8,29.98,West,270,3.0,3.0,72,0.00,,,0.00,Wunderground v.1.15,2013-03-04 19:51:00,
2013-03-04 14:57:00,25.2,18.1,29.98,West,264,3.0,5.0,74,0.00,,,0.00,Wunderground v.1.15,2013-03-04 19:57:00,
2013-03-04 15:02:00,25.1,18.3,29.98,WSW,255,2.0,10.0,75,0.00,,,0.00,Wunderground v.1.15,2013-03-04 20:02:00,
2013-03-04 15:07:00,25.1,18.3,29.98,NNE,28,2.0,10.0,75,0.00,,,0.00,Wunderground v.1.15,2013-03-04 20:07:00,
2013-03-04 15:12:00,25.0,17.9,29.98,East,86,2.0,3.0,74,0.00,,,0.00,Wunderground v.1.15,2013-03-04 20:12:00,
2013-03-04 15:18:00,24.6,17.8,29.99,NNW,338,2.0,4.0,75,0.00,,,0.00,Wunderground v.1.15,2013-03-04 20:18:00,
2013-03-04 15:23:00,24.6,18.1,29.99,NNW,335,2.0,2.0,76,0.00,,,0.00,Wunderground v.1.15,2013-03-04 20:23:00,
2013-03-04 15:28:00,24.4,17.9,29.99,WNW,287,2.0,8.0,76,0.00,,,0.00,Wunderground v.1.15,2013-03-04 20:28:00,
2013-03-04 15:33:00,24.4,18.2,29.99,NNW,342,2.0,4.0,77,0.00,,,0.00,Wunderground v.1.15,2013-03-04 20:33:00,
2013-03-04 15:39:00,24.4,18.5,29.99,NW,311,2.0,4.0,78,0.00,,,0.00,Wunderground v.1.15,2013-03-04 20:39:00,
2013-03-04 15:45:00,24.2,18.3,29.99,NE,42,2.0,4.0,78,0.00,,,0.00,Wunderground v.1.15,2013-03-04 20:45:00,
2013-03-04 15:50:00,24.2,18.3,29.99,West,280,2.0,2.0,78,0.00,,,0.00,Wunderground v.1.15,2013-03-04 20:50:00,
2013-03-04 15:56:00,24.2,18.3,29.99,WSW,246,1.0,2.0,78,0.00,,,0.00,Wunderground v.1.15,2013-03-04 20:56:00,
2013-03-04 16:01:00,24.2,18.0,30.00,North,359,1.0,11.0,77,0.00,,,0.00,Wunderground v.1.15,2013-03-04 21:01:00,
2013-03-04 16:06:00,24.3,17.8,30.00,NW,305,2.0,11.0,76,0.00,,,0.00,Wunderground v.1.15,2013-03-04 21:06:00,
2013-03-04 16:12:00,24.3,18.1,30.00,NW,311,1.0,2.0,77,0.00,,,0.00,Wunderground v.1.15,2013-03-04 21:12:00,
2013-03-04 16:17:00,24.2,18.3,30.01,NNE,27,2.0,3.0,78,0.00,,,0.00,Wunderground v.1.15,2013-03-04 21:17:00,
2013-03-04 16:22:00,24.0,18.4,30.01,ENE,75,2.0,3.0,79,0.00,,,0.00,Wunderground v.1.15,2013-03-04 21:22:00,
2013-03-04 16:28:00,23.8,17.6,30.01,NE,46,3.0,9.0,77,0.00,,,0.00,Wunderground v.1.15,2013-03-04 21:28:00,
2013-03-04 16:33:00,23.7,17.8,30.01,NE,55,4.0,5.0,78,0.00,,,0.00,Wunderground v.1.15,2013-03-04 21:33:00,
2013-03-04 16:39:00,23.5,17.6,30.01,West,273,4.0,5.0,78,0.00,,,0.00,Wunderground v.1.15,2013-03-04 21:39:00,
2013-03-04 16:45:00,23.6,17.7,30.02,North,356,2.0,3.0,78,0.00,,,0.00,Wunderground v.1.15,2013-03-04 21:45:00,
2013-03-04 16:50:00,23.6,18.0,30.02,NNW,331,1.0,1.0,79,0.00,,,0.00,Wunderground v.1.15,2013-03-04 21:50:00,
2013-03-04 16:55:00,23.6,17.7,30.03,NNE,33,2.0,4.0,78,0.00,,,0.00,Wunderground v.1.15,2013-03-04 21:55:00,
2013-03-04 17:00:00,23.2,17.7,30.03,SSW,205,3.0,3.0,79,0.00,,,0.00,Wunderground v.1.15,2013-03-04 22:00:00,
2013-03-04 17:06:00,23.0,17.7,30.03,North,6,3.0,11.0,80,0.00,,,0.00,Wunderground v.1.15,2013-03-04 22:06:00,
2013-03-04 17:11:00,22.8,17.8,30.04,SE,146,3.0,3.0,81,0.00,,,0.00,Wunderground v.1.15,2013-03-04 22:11:00,
2013-03-04 17:16:00,22.6,17.9,30.04,WNW,295,3.0,5.0,82,0.00,,,0.00,Wunderground v.1.15,2013-03-04 22:16:00,
2013-03-04 17:22:00,22.4,18.0,30.05,NNE,19,3.0,4.0,83,0.00,,,0.00,Wunderground v.1.15,2013-03-04 22:22:00,
2013-03-04 17:27:00,22.3,18.2,30.05,West,269,2.0,4.0,84,0.00,,,0.00,Wunderground v.1.15,2013-03-04 22:27:00,
2013-03-04 17:33:00,22.2,18.1,30.05,NE,38,2.0,3.0,84,0.00,,,0.00,Wunderground v.1.15,2013-03-04 22:33:00,
2013-03-04 17:39:00,22.0,17.9,30.06,NE,46,1.0,3.0,84,0.00,,,0.00,Wunderground v.1.15,2013-03-04 22:39:00,
2013-03-04 17:44:00,21.9,18.1,30.06,NNE,29,1.0,1.0,85,0.00,,,0.00,Wunderground v.1.15,2013-03-04 22:44:00,
2013-03-04 17:50:00,21.7,17.9,30.06,NNW,344,1.0,1.0,85,0.00,,,0.00,Wunderground v.1.15,2013-03-04 22:50:00,
2013-03-04 17:55:00,21.6,17.8,30.06,West,277,1.0,5.0,85,0.00,,,0.00,Wunderground v.1.15,2013-03-04 22:55:00,
2013-03-04 18:00:00,21.5,17.7,30.07,NW,308,1.0,1.0,85,0.00,,,0.00,Wunderground v.1.15,2013-03-04 23:00:00,
2013-03-04 18:06:00,21.3,17.5,30.07,NW,321,1.0,13.0,85,0.00,,,0.00,Wunderground v.1.15,2013-03-04 23:06:00,
2013-03-04 18:11:00,21.2,17.4,30.07,NW,312,1.0,2.0,85,0.00,,,0.00,Wunderground v.1.15,2013-03-04 23:11:00,
2013-03-04 18:16:00,21.1,17.3,30.07,NE,46,1.0,2.0,85,0.00,,,0.00,Wunderground v.1.15,2013-03-04 23:16:00,
2013-03-04 18:21:00,21.1,17.3,30.08,NW,312,1.0,1.0,85,0.00,,,0.00,Wunderground v.1.15,2013-03-04 23:21:00,
2013-03-04 18:27:00,21.1,17.0,30.08,NNE,22,0.0,2.0,84,0.00,,,0.00,Wunderground v.1.15,2013-03-04 23:27:00,
2013-03-04 18:33:00,21.2,17.1,30.08,NNE,20,2.0,2.0,84,0.00,,,0.00,Wunderground v.1.15,2013-03-04 23:33:00,
2013-03-04 18:39:00,21.1,17.0,30.08,NNE,30,2.0,2.0,84,0.00,,,0.00,Wunderground v.1.15,2013-03-04 23:39:00,
2013-03-04 18:45:00,21.1,17.0,30.08,NNW,337,2.0,3.0,84,0.00,,,0.00,Wunderground v.1.15,2013-03-04 23:45:00,
2013-03-04 18:51:00,21.1,17.0,30.08,NE,47,2.0,4.0,84,0.00,,,0.00,Wunderground v.1.15,2013-03-04 23:51:00,
2013-03-04 18:56:00,21.2,17.1,30.08,North,6,2.0,4.0,84,0.00,,,0.00,Wunderground v.1.15,2013-03-04 23:56:00,
2013-03-04 19:01:00,21.2,17.1,30.08,NNE,20,2.0,7.0,84,0.00,,,0.00,Wunderground v.1.15,2013-03-05 00:01:00,
2013-03-04 19:07:00,21.3,17.2,30.08,NE,41,5.0,11.0,84,0.00,,,0.00,Wunderground v.1.15,2013-03-05 00:07:00,
2013-03-04 19:13:00,21.4,17.3,30.09,NE,34,4.0,5.0,84,0.00,,,0.00,Wunderground v.1.15,2013-03-05 00:13:00,
2013-03-04 19:19:00,21.4,17.3,30.09,East,96,2.0,5.0,84,0.00,,,0.00,Wunderground v.1.15,2013-03-05 00:19:00,
2013-03-04 19:25:00,21.6,17.5,30.09,NNW,335,2.0,7.0,84,0.00,,,0.00,Wunderground v.1.15,2013-03-05 00:25:00,
2013-03-04 19:31:00,21.8,17.7,30.09,NNE,24,3.0,6.0,84,0.00,,,0.00,Wunderground v.1.15,2013-03-05 00:31:00,
2013-03-04 19:36:00,21.9,17.8,30.09,NNE,13,3.0,10.0,84,0.00,,,0.00,Wunderground v.1.15,2013-03-05 00:36:00,
2013-03-04 19:41:00,21.9,17.8,30.09,NNW,343,3.0,4.0,84,0.00,,,0.00,Wunderground v.1.15,2013-03-05 00:41:00,
2013-03-04 19:46:00,21.8,17.7,30.09,North,355,3.0,4.0,84,0.00,,,0.00,Wunderground v.1.15,2013-03-05 00:46:00,
2013-03-04 19:52:00,21.8,17.7,30.10,ENE,65,2.0,3.0,84,0.00,,,0.00,Wunderground v.1.15,2013-03-05 00:52:00,
2013-03-04 19:58:00,21.8,17.7,30.09,NNE,19,3.0,5.0,84,0.00,,,0.00,Wunderground v.1.15,2013-03-05 00:58:00,
2013-03-04 20:03:00,21.7,17.6,30.09,NNW,342,3.0,10.0,84,0.00,,,0.00,Wunderground v.1.15,2013-03-05 01:03:00,
2013-03-04 20:08:00,21.7,17.6,30.10,NE,56,3.0,10.0,84,0.00,,,0.00,Wunderground v.1.15,2013-03-05 01:08:00,
2013-03-04 20:13:00,21.7,17.6,30.10,NNE,20,3.0,5.0,84,0.00,,,0.00,Wunderground v.1.15,2013-03-05 01:13:00,
2013-03-04 20:19:00,21.7,17.6,30.10,NNE,32,4.0,8.0,84,0.00,,,0.00,Wunderground v.1.15,2013-03-05 01:19:00,
2013-03-04 20:24:00,21.6,17.5,30.10,North,11,4.0,4.0,84,0.00,,,0.00,Wunderground v.1.15,2013-03-05 01:24:00,
2013-03-04 20:29:00,21.7,17.6,30.10,NNW,342,4.0,5.0,84,0.00,,,0.00,Wunderground v.1.15,2013-03-05 01:29:00,
2013-03-04 20:35:00,21.7,17.6,30.11,East,84,4.0,4.0,84,0.00,,,0.00,Wunderground v.1.15,2013-03-05 01:35:00,
2013-03-04 20:40:00,21.6,17.5,30.10,NE,52,3.0,3.0,84,0.00,,,0.00,Wunderground v.1.15,2013-03-05 01:40:00,
2013-03-04 20:46:00,21.6,17.5,30.11,ENE,57,2.0,5.0,84,0.00,,,0.00,Wunderground v.1.15,2013-03-05 01:46:00,
2013-03-04 20:51:00,21.7,17.6,30.11,NNE,27,3.0,5.0,84,0.00,,,0.00,Wunderground v.1.15,2013-03-05 01:51:00,
2013-03-04 20:56:00,21.7,17.6,30.11,NNE,32,3.0,5.0,84,0.00,,,0.00,Wunderground v.1.15,2013-03-05 01:56:00,
2013-03-04 21:01:00,21.6,17.5,30.11,NE,38,3.0,13.0,84,0.00,,,0.00,Wunderground v.1.15,2013-03-05 02:01:00,
2013-03-04 21:06:00,21.6,17.8,30.11,NNW,345,2.0,13.0,85,0.00,,,0.00,Wunderground v.1.15,2013-03-05 02:06:00,
2013-03-04 21:11:00,21.6,17.8,30.11,NE,50,2.0,4.0,85,0.00,,,0.00,Wunderground v.1.15,2013-03-05 02:11:00,
2013-03-04 21:17:00,21.6,17.8,30.12,NE,50,2.0,4.0,85,0.00,,,0.00,Wunderground v.1.15,2013-03-05 02:17:00,
2013-03-04 21:22:00,21.6,17.8,30.12,NE,49,2.0,2.0,85,0.00,,,0.00,Wunderground v.1.15,2013-03-05 02:22:00,
2013-03-04 21:27:00,21.6,17.8,30.12,NE,38,2.0,2.0,85,0.00,,,0.00,Wunderground v.1.15,2013-03-05 02:27:00,
2013-03-04 21:33:00,21.6,17.8,30.12,ENE,64,2.0,3.0,85,0.00,,,0.00,Wunderground v.1.15,2013-03-05 02:33:00,
2013-03-04 21:39:00,21.7,17.9,30.12,North,6,3.0,4.0,85,0.00,,,0.00,Wunderground v.1.15,2013-03-05 02:39:00,
2013-03-04 21:44:00,21.7,17.9,30.12,NE,52,3.0,4.0,85,0.00,,,0.00,Wunderground v.1.15,2013-03-05 02:44:00,
2013-03-04 21:49:00,21.7,17.9,30.12,ENE,75,2.0,4.0,85,0.00,,,0.00,Wunderground v.1.15,2013-03-05 02:49:00,
2013-03-04 21:55:00,21.8,18.0,30.12,NE,41,2.0,2.0,85,0.00,,,0.00,Wunderground v.1.15,2013-03-05 02:55:00,
2013-03-04 22:00:00,21.8,18.0,30.12,NNE,24,2.0,2.0,85,0.00,,,0.00,Wunderground v.1.15,2013-03-05 03:00:00,
2013-03-04 22:06:00,21.8,18.0,30.13,NE,47,1.0,8.0,85,0.00,,,0.00,Wunderground v.1.15,2013-03-05 03:06:00,
2013-03-04 22:11:00,21.8,18.0,30.13,NE,37,2.0,4.0,85,0.00,,,0.00,Wunderground v.1.15,2013-03-05 03:11:00,
2013-03-04 22:16:00,21.8,18.0,30.13,NE,52,2.0,4.0,85,0.00,,,0.00,Wunderground v.1.15,2013-03-05 03:16:00,
2013-03-04 22:21:00,21.9,18.1,30.13,NE,48,2.0,4.0,85,0.00,,,0.00,Wunderground v.1.15,2013-03-05 03:21:00,
2013-03-04 22:27:00,21.9,18.1,30.13,ENE,68,2.0,4.0,85,0.00,,,0.00,Wunderground v.1.15,2013-03-05 03:27:00,
2013-03-04 22:32:00,21.9,18.1,30.13,NE,48,2.0,2.0,85,0.00,,,0.00,Wunderground v.1.15,2013-03-05 03:32:00,
2013-03-04 22:37:00,21.9,17.8,30.13,NE,34,2.0,4.0,84,0.00,,,0.00,Wunderground v.1.15,2013-03-05 03:37:00,
2013-03-04 22:42:00,22.0,18.2,30.13,NE,41,3.0,4.0,85,0.00,,,0.00,Wunderground v.1.15,2013-03-05 03:42:00,
2013-03-04 22:48:00,22.0,18.2,30.13,North,356,2.0,4.0,85,0.00,,,0.00,Wunderground v.1.15,2013-03-05 03:48:00,
2013-03-04 22:53:00,22.0,18.2,30.13,East,84,3.0,5.0,85,0.00,,,0.00,Wunderground v.1.15,2013-03-05 03:53:00,
2013-03-04 22:58:00,22.0,18.5,30.14,NNE,23,3.0,5.0,86,0.00,,,0.00,Wunderground v.1.15,2013-03-05 03:58:00,
2013-03-04 23:03:00,22.0,18.5,30.14,North,6,2.0,7.0,86,0.00,,,0.00,Wunderground v.1.15,2013-03-05 04:03:00,
2013-03-04 23:09:00,22.1,18.6,30.14,NE,38,2.0,7.0,86,0.00,,,0.00,Wunderground v.1.15,2013-03-05 04:09:00,
2013-03-04 23:14:00,22.0,18.5,30.14,NE,36,2.0,3.0,86,0.00,,,0.00,Wunderground v.1.15,2013-03-05 04:14:00,
2013-03-04 23:19:00,22.0,18.5,30.14,NE,34,2.0,4.0,86,0.00,,,0.00,Wunderground v.1.15,2013-03-05 04:19:00,
2013-03-04 23:25:00,22.1,18.6,30.14,NE,53,2.0,4.0,86,0.00,,,0.00,Wunderground v.1.15,2013-03-05 04:25:00,
2013-03-04 23:30:00,22.0,18.5,30.14,NE,39,2.0,2.0,86,0.00,,,0.00,Wunderground v.1.15,2013-03-05 04:30:00,
2013-03-04 23:35:00,22.0,18.5,30.14,NE,38,2.0,2.0,86,0.00,,,0.00,Wunderground v.1.15,2013-03-05 04:35:00,
2013-03-04 23:41:00,22.1,18.6,30.14,North,9,2.0,2.0,86,0.00,,,0.00,Wunderground v.1.15,2013-03-05 04:41:00,
2013-03-04 23:46:00,22.1,18.3,30.14,NE,36,2.0,3.0,85,0.00,,,0.00,Wunderground v.1.15,2013-03-05 04:46:00,
2013-03-04 23:51:00,22.2,18.4,30.15,NE,39,3.0,3.0,85,0.00,,,0.00,Wunderground v.1.15,2013-03-05 04:51:00,
2013-03-04 23:57:00,22.3,18.5,30.15,North,360,2.0,4.0,85,0.00,,,0.00,Wunderground v.1.15,2013-03-05 04:57:00,